"Pseudo-MPEC" for S510956

Created 2016 Dec 31 19:49:55 UT using Find_Orb

Astrometry:
     S510956 tC2016 12 07.13864 02 53 40.55 +33 05 12.6          14.7 R      Y00
     S510956 tC2016 12 07.14012 02 54 39.19 +33 05 25.6          14.6 R      Y00
     S510956 tC2016 12 07.14173 02 55 42.86 +33 05 37.7          14.5 R      Y00
     S510956 tC2016 12 07.15644 03 05 22.36 +33 06 17.9          14.6 R      Y00
     S510956 tC2016 12 07.15815 03 06 30.40 +33 06 14.8          14.6 R      Y00
     S510956 tC2016 12 07.15965 03 07 29.72 +33 06 10.1          14.7 R      Y00

Station data:
(Y00) SONEAR Observatory, Oliveira (S20.715080 W44.784960)  Brazil.  
    Observers C. Jacques, E. Pimentel, J. Barros.  Measurer C. Jacques.  0.28-m
    f/2.2 astrograph + CCD.

Orbital elements:  S510956
   Perigee 2016 Dec 6.897826 +/- 0.0116 TT = 21:32:52 (JD 2457729.397826)
Epoch 2016 Dec  7.0 TT = JDT 2457729.5                        Gray
M  74.8620517 +/- 7                 (J2000 equatorial)
n 732.6913725267 +/- 14.5           Peri.  263.6919266 +/- 0.6
a 26302.041239 +/- 346              Node   326.4946133 +/- 1.0
e   0.731257979 +/- 0.00669         Incl.   27.5843615 +/- 0.36
P 707.52m/0.491d           H 31.6   G  0.15   U 14.5  
q 7068.4636953 +/- 266    Q 45535.618782 +/- 419
From 6 observations 2016 Dec. 7 (30.3 min); mean residual 1".770
Residuals in arcseconds: 
161207 Y00 2.67- .243-    161207 Y00 3.02+ .103+    161207 Y00 1.65+ .191+    
161207 Y00 .631+ .191+    161207 Y00 4.01- .234-    161207 Y00 1.38+ 7.4m-    

Ephemerides (geocentric):
Date (UTC) HH   RA              Dec         delta   r     elong  mag " sig PA
---- -- -- --  ------------   ------------  ------ ------ -----  --- ---- ---
2016 12 07 00  01 12 12.096   +22 15 07.24   34060 .98531 128.8 15.3 4596  63
2016 12 07 01  01 56 23.118   +24 52 55.36   39997 .98536 139.2 15.3 1642  59
2016 12 07 02  02 32 05.361   +26 21 27.40   43667 .98540 147.2 15.3  491  43
2016 12 07 03  03 04 13.703   +27 11 30.19   45372 .98542 154.4 15.2  101 172
2016 12 07 04  03 35 35.772   +27 33 27.57   45235 .98543 161.2 15.0  138 132
2016 12 07 05  04 08 34.663   +27 28 00.85   43244 .98542 168.2 14.6  762 115
2016 12 07 06  04 46 15.882   +26 45 56.47   39258 .98539 175.3 Sha  2119 111
2016 12 07 07  05 34 31.813   +24 55 47.70   32935 .98534 171.0 Sha  5137 111
2016 12 07 08  06 50 13.067   +19 55 10.31   23554 .98526 153.5 13.8 234' 114
2016 12 07 09  10 27 20.187   -05 22 17.09    9985 .98512  94.7 13.7  22d 118
2016 12 07 10  22 20 14.914   +04 31 11.44   15299 .98510  83.3 15.1 870'  61
2016 12 07 11  00 23 40.441   +18 24 15.63   27346 .98518 116.4 15.2 9293  62
2016 12 07 12  01 22 55.227   +23 00 28.62   35508 .98525 130.9 15.3 2782  59
2016 12 07 13  02 04 44.465   +25 18 17.12   40935 .98530 140.6 15.4  704  36
2016 12 07 14  02 39 25.780   +26 36 20.05   44178 .98534 148.4 15.3  411 120
2016 12 07 15  03 11 13.218   +27 19 10.77   45495 .98536 155.4 15.2  562  91
2016 12 07 16  03 42 43.517   +27 34 45.60   44976 .98536 162.3 14.9  388  68
2016 12 07 17  04 16 22.667   +27 21 55.93   42587 .98535 169.4 14.5  469 141
2016 12 07 18  04 55 36.132   +26 28 27.24   38151 .98532 176.2 Sha  1866 116
2016 12 07 19  05 47 25.631   +24 13 39.33   31270 .98526 168.7 Sha  5205 113
2016 12 07 20  07 14 24.755   +17 43 37.87   21096 .98517 147.9 13.7 271' 116
2016 12 07 21  13 03 19.362   -21 40 05.71    7521 .98502  54.2 15??  38d 108
2016 12 07 22  22 59 13.548   +09 27 26.83   18204 .98505  93.6 15.1 465'  61
2016 12 07 23  00 38 52.800   +19 46 54.78   29315 .98513 119.7 15.2 5693  60
2016 12 08 00  01 32 58.533   +23 40 02.00   36839 .98520 132.8 15.3 1349  46
2016 12 08 01  02 12 49.161   +25 40 48.57   41779 .98524 142.0 15.4  563 126
2016 12 08 02  02 46 39.584   +26 49 21.57   44607 .98527 149.5 15.3 1002  95
2016 12 08 03  03 18 12.396   +27 25 19.17   45538 .98529 156.5 15.1 1088  87
2016 12 08 04  03 49 56.771   +27 34 27.25   44637 .98529 163.4 14.9  836  77
2016 12 08 05  04 24 24.313   +27 13 42.58   41842 .98528 170.7 14.5  410  15
2016 12 08 06  05 05 26.213   +26 07 11.76   36940 .98524 176.4 Sha  1616 122
2016 12 08 07  06 01 36.347   +23 21 46.46   29466 .98518 166.0 13.9 5316 115
2016 12 08 08  07 44 19.995   +14 40 50.43   18428 .98508 140.6 13.6 327' 118
2016 12 08 09  17 18 21.716   -25 35 30.73    7398 .98493   4.8 36??  47d  80
2016 12 08 10  23 28 32.454   +12 55 44.53   20891 .98500 101.1 15.1 259'  60
2016 12 08 11  00 52 30.422   +20 55 42.11   31132 .98508 122.6 15.3 3072  54
2016 12 08 12  01 42 28.889   +24 14 39.88   38060 .98514 134.5 15.4  600 158
2016 12 08 13  02 20 39.747   +26 00 44.15   42532 .98518 143.3 15.4 1246  97
2016 12 08 14  02 53 48.094   +27 00 35.72   44953 .98521 150.7 15.3 1601  89
2016 12 08 15  03 25 12.250   +27 29 54.58   45502 .98523 157.6 15.1 1598  86
2016 12 08 16  03 57 16.753   +27 32 27.76   44217 .98522 164.5 14.8 1286  80
2016 12 08 17  04 32 41.796   +27 03 08.23   41007 .98521 172.0 Sha   662  52
2016 12 08 18  05 15 51.611   +25 41 31.61   35620 .98517 175.9 Sha  1371 131
2016 12 08 19  06 17 24.939   +22 17 12.18   27511 .98510 162.8 13.8 5477 117
2016 12 08 20  08 23 27.591   +10 12 39.86   15542 .98498 130.6 13.5 416' 119
2016 12 08 21  20 10 52.018   -11 37 58.08    9744 .98487  45.9 16??  26d  64
2016 12 08 22  23 52 00.832   +15 30 28.43   23365 .98495 106.8 15.1 8423  58
2016 12 08 23  01 04 54.374   +21 53 53.38   32809 .98503 125.2 15.3 1210  30
2016 12 09 00  01 51 31.774   +24 45 09.58   39175 .98508 136.2 15.4 1275 102
2016 12 09 01  02 28 18.532   +26 18 21.18   43197 .98513 144.5 15.4 1950  90